Showing default

GAOFEN 13, 46610

Orbit data source: Space-Track

GAOFEN 13, 46610 is a payload satellite owned by Yaogan Zongti (CN) in GEO that was launched on Sun, 11 Oct 2020 UTC via a CHANG ZHENG 3B launch vehicle from the Xichang Space Center, China (XSC). Payload-class satellites include a variety of spacecraft equipped with specific instruments for various scientific and technological missions. These include communications satellites like Starlink; space stations such as the ISS; scientific satellites like the Hubble; Earth observation satellites from companies like Planet Labs, Umbra, and HawkEye 360; GPS; miniature CubeSats for education and research; and military/defense satellites.

Not visible in the next 10 days
Identifier
46610, 2020-071A
Orbit
GEO
Country
Flag of CNCN / PRC
Related business
Manufacturer
CAST
Mission
Operational Defense Imaging
Bus & Motor
DFH-4?, DFH-4 LAE
Mass
4,600 kg wet, ~2,500 kg dry
Launch date (UTC)
2020-10-11 (6 years ago)
Launch vehicle
CHANG ZHENG 3B
Launch site
Xichang Space Center, China (XSC)
Object type
Payload
Rocket body
Debris
Shape & HBR
Box + 2 Pan, Unknown HBR
Radar Cross Section
34.063 m², Large (>1 m²)

Expand to show TLE details & history
Last TLE update: 13 hours ago

TLE from 13 hours ago
0 GAOFEN 13
1 46610U 20071A   26172.91258433 -.00000363  00000-0  00000+0 0  9992
2 46610   0.5345  84.8388 0041360 123.4638 148.5091  1.00268505 20968
Epoch: 2026-06-21T21:54Z
TLE epoch observation values (Epoch: 2026-06-21T21:54:07.286Z)
Latitude
-0.53434°
Longitude
118.43337°
Altitude
35,935.404 km
Speed
3.064 km/s
True Right ascension
23h 48m 16s
True Declination
0° 32' 02"
Sunlit
Object was in daylight at epoch
Visualization orbit readout
Latitude
Unknown
Longitude
Unknown
Altitude
Unknown
Speed
Unknown
Apparent Right ascension
Unknown
Apparent Declination
Unknown
Sunlit
N/A
Visualization observer readout
Local Sidereal Time
21:30:09
Azimuth
Unknown
Elevation
Unknown
Doppler factor
Unknown
Orbital elements
Apogee altitude
35,962.986 km
Perigee altitude
35,614.183 km
Semi-major axis
42,166.722 km
Eccentricity
0.00414
Inclination
0.5345°
RAAN
84.8388°
Arg. of periapsis
123.4638°
True anomaly
148.75559°
Mean anomaly
148.5091°
Eccentric anomaly
148.63245°
Mean motion
0.25066 °/min
Orbital period
1,436.2 mins
BSTAR
0
Loading maneuver chart data...
Computing Atmospheric mass density...
Loading historical data...
Loading historical data...
Loading historical data...
Loading historical data...
Loading historical data...
Loading historical data...
Loading historical data...
Other satellites on launch #71 in the year 2020 (2020-10-11 UTC)

Documentation

Showing up to 5 results
|